Sergeant Bluff, IA

1:03 PM CDT on August 29, 2016 (GMT -0500)
Sioux Gateway

Weather History for KSUX - January, 2013

Change the Weather History Date:

Tuesday, January 22, 2013

  Actual Average Record
Temperature  
Mean Temperature 12 °F 20 °F  
Max Temperature 16 °F 31 °F 62 °F (1989)
Min Temperature 7 °F 10 °F -21 °F (1936)
Degree Days  
Heating Degree Days 53 45  
Month to date heating degree days 978 990  
Since 1 July heating degree days 3661 3782  
Cooling Degree Days 0 0  
Month to date cooling degree days 0 0  
Year to date cooling degree days 0 0  
Moisture  
Dew Point 3 °F    
Average Humidity 70    
Maximum Humidity 83    
Minimum Humidity 57    
Precipitation  
Precipitation 0.00 in 0.02 in 1.09 in (1982)
Month to date precipitation 0.09 0.44  
Year to date precipitation 0.09 0.44  
Snow  
Snow 0.00 in 0.20 in 17.40 in (1982)
Month to date snowfall 1.4 4.6  
Since 1 July snowfall 11.4 17.8  
Snow Depth 1.00 in    
Sea Level Pressure  
Sea Level Pressure 30.38 in    
Wind  
Wind Speed 5 mph (SSE)    
Max Wind Speed 10 mph    
Max Gust Speed 12 mph    
Visibility 10 miles    
Events      
T = Trace of Precipitation, MM = Missing Value Source: NWS Daily Summary

Daily Weather History Graph

Daily Weather History Graph

Search for Another Location

Airport or City:

Trip Planner

Search our weather history database for the weather conditions in past years. The results will help you decide how hot, cold, wet, or windy it might be!

Date:

Astronomy

Jan. 22, 2013 Rise Set
Actual Time 7:47 AM CST 5:27 PM CST
Civil Twilight 7:17 AM CST 5:57 PM CST
Nautical Twilight 6:43 AM CST 6:31 PM CST
Astronomical Twilight 6:09 AM CST 7:05 PM CST
Moon 1:49 PM CST (1/22) 4:11 AM CST (1/22)
Length of Visible Light 10h 40m
Length of Day
9h 39m
Waxing Gibbous, 83% of the Moon is Illuminated
Jan 22
Waxing Gibbous
Jan 26
Full
Feb 3
Last Quarter
Feb 10
New
Feb 17
First Quarter

Hourly Weather History & Observations

Time (CST) Temp. Windchill Dew Point Humidity Pressure Visibility Wind Dir Wind Speed Gust Speed Precip Events Conditions
12:52 AM 7.0 °F -1.7 °F -0.9 °F 70% 30.44 in 10.0 mi WNW 4.6 mph - N/A   Mostly Cloudy
1:52 AM 7.0 °F -3.3 °F -0.9 °F 70% 30.45 in 10.0 mi NW 5.8 mph - N/A   Overcast
2:52 AM 8.1 °F -4.3 °F -2.0 °F 64% 30.43 in 10.0 mi North 8.1 mph - N/A   Overcast
3:52 AM 8.1 °F -0.5 °F -2.0 °F 64% 30.42 in 10.0 mi North 4.6 mph - N/A   Mostly Cloudy
4:52 AM 8.1 °F 1.4 °F -4.0 °F 58% 30.41 in 10.0 mi NE 3.5 mph - N/A   Overcast
5:52 AM 8.1 °F - -4.0 °F 58% 30.43 in 10.0 mi Calm Calm - N/A   Overcast
6:52 AM 8.1 °F - -2.0 °F 64% 30.44 in 10.0 mi Calm Calm - N/A   Overcast
7:52 AM 8.1 °F - -2.0 °F 64% 30.45 in 10.0 mi Calm Calm - N/A   Overcast
8:52 AM 8.1 °F -2.0 °F -0.9 °F 67% 30.45 in 10.0 mi South 5.8 mph - N/A   Overcast
9:52 AM 10.0 °F 0.4 °F 1.0 °F 67% 30.44 in 10.0 mi SSE 5.8 mph - N/A   Overcast
10:52 AM 10.9 °F 4.7 °F 1.0 °F 64% 30.47 in 10.0 mi South 3.5 mph - N/A   Overcast
11:52 AM 12.0 °F 2.7 °F 3.0 °F 67% 30.44 in 10.0 mi South 5.8 mph - N/A   Overcast
12:52 PM 14.0 °F 6.5 °F 5.0 °F 67% 30.40 in 10.0 mi SSW 4.6 mph - N/A   Overcast
1:52 PM 15.1 °F 5.2 °F 7.0 °F 70% 30.37 in 10.0 mi South 6.9 mph - N/A   Overcast
2:52 PM 15.1 °F 5.2 °F 7.0 °F 70% 30.35 in 10.0 mi South 6.9 mph - N/A   Overcast
3:52 PM 16.0 °F 6.3 °F 8.1 °F 71% 30.34 in 10.0 mi South 6.9 mph - N/A   Overcast
4:52 PM 16.0 °F 7.4 °F 8.1 °F 71% 30.34 in 10.0 mi SE 5.8 mph - N/A   Overcast
5:52 PM 16.0 °F 6.3 °F 8.1 °F 71% 30.33 in 10.0 mi SE 6.9 mph - N/A   Overcast
6:52 PM 12.0 °F 1.5 °F 7.0 °F 80% 30.34 in 10.0 mi SE 6.9 mph - N/A   Clear
7:52 PM 12.9 °F 2.6 °F 7.0 °F 77% 30.33 in 10.0 mi SE 6.9 mph - N/A   Clear
8:52 PM 12.0 °F 1.5 °F 7.0 °F 80% 30.31 in 10.0 mi SE 6.9 mph - N/A   Clear
9:52 PM 12.0 °F 0.5 °F 6.1 °F 77% 30.31 in 10.0 mi SSE 8.1 mph - N/A   Clear
10:52 PM 10.9 °F -0.8 °F 6.1 °F 81% 30.30 in 10.0 mi SSE 8.1 mph - N/A   Clear
11:52 PM 12.0 °F 1.5 °F 7.0 °F 80% 30.29 in 10.0 mi SSE 6.9 mph - N/A   Clear